Location: Beaver Meadows
(40.3728°N, 105.6136°W)
Time: 04:26:08
(UTC-07:00)

ISS - Visible Passes

Search period start: 24 November 2017 00:00
Search period end: 04 December 2017 00:00
Orbit: 402 x 407 km, 51.6° (Epoch: 24 November)

Date Brightness Start Highest point End Pass type
(mag) Time Alt. Az. Time Alt. Az. Time Alt. Az.
24 Nov -1.2 18:15:09 10° SSE 18:15:22 11° SSE 18:15:22 11° SSE visible
25 Nov -1.2 18:57:22 10° SW 18:58:18 18° SW 18:58:18 18° SW visible
26 Nov -2.9 18:05:25 10° SSW 18:08:21 32° SE 18:08:27 32° SE visible
27 Nov -1.9 17:14:01 10° S 17:16:11 17° SE 17:18:22 10° E visible
27 Nov -2.0 18:49:10 10° WSW 18:51:11 32° W 18:51:11 32° W visible
28 Nov -3.9 17:56:44 10° SW 18:00:00 83° SE 18:01:09 37° ENE visible
29 Nov -3.1 17:04:36 10° SSW 17:07:41 40° SE 17:10:47 10° ENE visible
29 Nov -1.9 18:41:24 10° W 18:43:42 25° NW 18:43:42 25° NW visible
30 Nov -3.0 17:48:36 10° WSW 17:51:44 42° NNW 17:53:31 21° NNE visible
01 Dec -1.5 18:33:54 10° WNW 18:35:55 17° NNW 18:35:55 17° NNW visible
02 Dec -2.0 17:40:50 10° W 17:43:33 23° NNW 17:45:37 14° NNE visible
03 Dec -1.3 18:26:31 10° NW 18:27:55 13° NNW 18:27:55 13° NNW visible
